This is the latest recevied weather packets stored in our database for station/object IT9DBI-3. If no packets are shown the sender has not sent any weather packets the latest 10 day(s).
| Time | Temp. | Humidity | Pressure | Rain* | Wind** | Luminosity | Snow |
|---|---|---|---|---|---|---|---|
| 1788435445 | 36.11° C | 41% | 1014.9 hPa | - | - | - | - |
| 1788434244 | 36.11° C | 40% | 1015 hPa | - | - | - | - |
| 1788433042 | 36.11° C | 39% | 1015 hPa | - | - | - | - |
| 1788431841 | 36.11° C | 38% | 1015.1 hPa | - | - | - | - |
| 1788430640 | 35.56° C | 38% | 1015.3 hPa | - | - | - | - |
| 1788429714 | 35° C | 39% | 1015.4 hPa | - | - | - | - |
| 1788428512 | 35° C | 39% | 1015.5 hPa | - | - | - | - |
| 1788427311 | 34.44° C | 39% | 1015.8 hPa | - | - | - | - |
| 1788426109 | 34.44° C | 41% | 1015.8 hPa | - | - | - | - |
| 1788424908 | 32.78° C | 45% | 1015.9 hPa | - | - | - | - |
| 1788423707 | 32.78° C | 44% | 1015.9 hPa | - | - | - | - |
| 1788422506 | 33.89° C | 45% | 1015.8 hPa | - | - | - | - |
| 1788421304 | 33.33° C | 48% | 1015.6 hPa | - | - | - | - |
| 1788420103 | 33.33° C | 48% | 1015.6 hPa | - | - | - | - |
| 1788418902 | 32.78° C | 50% | 1015.6 hPa | - | - | - | - |
| 1788417700 | 32.78° C | 51% | 1015.6 hPa | - | - | - | - |
| 1788416499 | 32.22° C | 52% | 1015.7 hPa | - | - | - | - |
| 1788415298 | 30.56° C | 56% | 1015.9 hPa | - | - | - | - |
| 1788414097 | 31.11° C | 56% | 1015.8 hPa | - | - | - | - |
| 1788412895 | 30.56° C | 58% | 1015.6 hPa | - | - | - | - |
| 1788411694 | 29.44° C | 62% | 1015.7 hPa | - | - | - | - |
| 1788410493 | 29.44° C | 62% | 1015.6 hPa | - | - | - | - |
| 1788409291 | 30.56° C | 56% | 1015.4 hPa | - | - | - | - |
| 1788408090 | 30° C | 60% | 1015.5 hPa | - | - | - | - |
| 1788406889 | 30° C | 59% | 1015.4 hPa | - | - | - | - |
* Rain since midnight (hover to see other rain measurements)
** Current wind speed in m/s (hover to see current wind gust speed)